Location: ????
(33.1659°N, 35.6604°E)
Time: 21:28:23
(UTC+00:00)

Cosmos 1025 Rocket - Pass Details

Date: 20 September 2019
Orbit: 593 x 619 km, 82.5° (Epoch: 12 October)

Event Time Altitude Azimuth Distance (km) Brightness Sun altitude
Rises 16:32:57 0° 350° (N) 2,835 6.7 -12.4°
Reaches altitude 10° 16:35:10 10° 348° (NNW) 1,929 5.9 -12.8°
Maximum altitude 16:39:23 68° 266° (W) 641 3.3 -13.7°
Drops below altitude 10° 16:43:36 10° 183° (S) 1,921 5.5 -14.6°
Sets 16:45:48 0° 181° (S) 2,821 6.3 -15.0°
